Content
SEND FEEDBACK

Daily
Averages
Monthly
Summary
Germany

BERLIN, GERMANY


Home > Europe > Germany
Elevation: 157 feet     Latitude: 52 23N     Longitude: 013 31E

WEATHER
 
SELECT A DAY
Number of Records: 252,620;   Date Range: 7/3/96 - 8/27/14
 
SHARE

PRINT THIS DATA

[ ← Previous Day ]
WEATHER ALMANAC - SEPTEMBER 28, 2013
[ Next Day → ]
[ °C ]   °F
Weather ElementAverageHighLow
Temperature47.8 °F59 °F (2:50 pm)39.2 °F (4:20 am)
Dewpoint42.4 °F48.2 °F (10:20 am)39.2 °F (4:20 am)
Humidity83.3 %100 % (2:50 am)55 % (5:20 pm)
Barometer30.04 in30.06 in (9:20 pm)30.01 in (2:50 pm)
Wind Speed5 mph10.4 mph (3:50 pm)
Weather ElementAverage
Visibility4.2 mi
Wind DirectionSSE (147.9 °)

Weather ElementTotal
Precipitation---
Heating Degree Days15.9 (Base 65)
Averaged from 47 records on September 28, 2013
WEATHER CONDITIONS BREAKOUT
WIND DIRECTION BREAKOUT
WEATHER BY HOUR - SEPTEMBER 28, 2013
[ °C ]   °F
Local TimeTemperatureDewpointHumidityBarometerVisibilityWind DirectionWind SpeedGust SpeedPrecipitationEventsConditions
12:50 AM42.8 °F41.0 °F93 %30.04 in6.2 miWest (260°)3.5 mphFogShallow Fog
1:20 AM42.8 °F41.0 °F93 %30.04 in6.2 miSW (230°)5.8 mphFogShallow Fog
1:50 AM42.8 °F41.0 °F93 %30.04 in6.2 miWSW (240°)5.8 mphFogShallow Fog
2:20 AM42.8 °F41.0 °F93 %30.04 in6.2 miWSW (250°)4.6 mphFogShallow Fog
2:50 AM41.0 °F41.0 °F100 %30.04 in6.2 miWSW (250°)5.8 mphFogPatches of Fog
3:20 AM41.0 °F41.0 °F100 %30.04 in6.2 miWSW (250°)4.6 mphFogPatches of Fog
3:50 AM41.0 °F41.0 °F100 %30.04 in0.5 miWSW (240°)3.5 mphFogFog
4:20 AM39.2 °F39.2 °F100 %30.04 in0.7 miWest (260°)4.6 mphFogPatches of Fog
4:50 AM41.0 °F41.0 °F100 %30.04 in0.7 miWSW (240°)3.5 mphFogPatches of Fog
5:20 AM39.2 °F39.2 °F100 %30.04 in0.2 miWSW (250°)4.6 mphFogFog
5:50 AM39.2 °F39.2 °F100 %30.04 in0.4 miWSW (250°)3.5 mphFogFog
6:20 AM39.2 °F39.2 °F100 %30.04 in0.3 miWSW (240°)4.6 mphFogFog
6:50 AM39.2 °F39.2 °F100 %30.04 in0.2 miWSW (250°)3.5 mphFogFog
7:20 AM39.2 °F39.2 °F100 %30.04 in0.3 miSW (230°)3.5 mphFogFog
7:50 AM39.2 °F39.2 °F100 %30.04 in0.1 miNorth (360°)1.2 mphFogFog
8:20 AM41.0 °F41.0 °F100 %30.04 in0.2 miVariable1.2 mphFogFog
8:50 AM42.8 °F42.8 °F100 %30.04 in0.1 miWSW (250°)2.3 mphFogFog
9:20 AM44.6 °F44.6 °F100 %30.04 in0.2 miWSW (250°)2.3 mphFogFog
9:50 AM46.4 °F46.4 °F100 %30.04 in3.1 miSouth (180°)2.3 mphFogPatches of Fog
10:20 AM50.0 °F48.2 °F94 %30.04 in6.2 miSSW (210°)2.3 mphScattered Clouds
10:50 AM51.8 °F48.2 °F88 %30.04 in6.2 miSouth (180°)2.3 mphScattered Clouds
11:20 AM53.6 °F46.4 °F77 %30.04 in6.2 miSW (220°)3.5 mphScattered Clouds
11:50 AM55.4 °F46.4 °F72 %30.04 in6.2 miVariable3.5 mphScattered Clouds
12:20 PM55.4 °F46.4 °F72 %30.04 in6.2 miWest (260°)2.3 mphScattered Clouds
12:50 PM55.4 °F44.6 °F67 %30.04 in6.2 miWNW (300°)4.6 mphScattered Clouds
1:20 PM57.2 °F46.4 °F67 %30.04 in6.2 miNW (310°)4.6 mphScattered Clouds
1:50 PM57.2 °F42.8 °F59 %30.04 in6.2 miNNE (20°)3.5 mphScattered Clouds
2:20 PM57.2 °F42.8 °F59 %30.04 in6.2 miNE (40°)3.5 mphScattered Clouds
2:50 PM59.0 °F46.4 °F63 %30.01 in6.2 miVariable3.5 mphScattered Clouds
3:20 PM57.2 °F44.6 °F63 %30.01 in6.2 miNE (40°)9.2 mphScattered Clouds
3:50 PM55.4 °F41.0 °F58 %30.01 in6.2 miNE (40°)10.4 mphScattered Clouds
4:20 PM57.2 °F42.8 °F59 %30.01 in6.2 miENE (70°)8.1 mphScattered Clouds
4:50 PM57.2 °F42.8 °F59 %30.01 in6.2 miENE (70°)5.8 mphScattered Clouds
5:20 PM57.2 °F41.0 °F55 %30.01 in6.2 miNE (40°)9.2 mphScattered Clouds
5:50 PM55.4 °F41.0 °F58 %30.01 in6.2 miNE (40°)6.9 mphScattered Clouds
6:20 PM55.4 °F42.8 °F63 %30.04 in6.2 miNE (40°)6.9 mphScattered Clouds
6:50 PM53.6 °F42.8 °F67 %30.04 inNE (50°)6.9 mphClear
7:20 PM51.8 °F42.8 °F71 %30.04 inNE (50°)6.9 mphClear
7:50 PM50.0 °F42.8 °F76 %30.04 inNE (50°)6.9 mphClear
8:20 PM48.2 °F42.8 °F82 %30.04 inENE (60°)5.8 mphClear
8:50 PM46.4 °F42.8 °F87 %30.04 inNE (50°)6.9 mphClear
9:20 PM46.4 °F41.0 °F81 %30.06 inENE (60°)8.1 mphClear
9:50 PM44.6 °F41.0 °F87 %30.06 inENE (60°)6.9 mphClear
10:20 PM44.6 °F41.0 °F87 %30.06 inENE (60°)8.1 mphClear
10:50 PM44.6 °F41.0 °F87 %30.06 inNE (50°)6.9 mphClear
11:20 PM42.8 °F41.0 °F93 %30.06 inNE (50°)6.9 mphClear
11:50 PM42.8 °F41.0 °F93 %30.06 inNE (50°)5.8 mphClear
Hourly data recorded from EDDB, located miles away from Berlin, Germany







STORIES FROM OUR PARTNERS